H1 CPF 2 NER 2025 7 24 9 205 01 glonass135 H2 1600801 9135 41330 2025 7 24 0 0 0 2025 7 27 23 45 0 900 1 1 0 0 0 1 H9 10 0 60880 0.00000 0 -22603332.994 -3677981.089 11184560.988 10 0 60880 900.00000 0 -23785275.683 -3945245.465 8253250.650 10 0 60880 1800.00000 0 -24628005.738 -4019449.902 5161155.373 10 0 60880 2700.00000 0 -25096226.342 -3946355.998 1968491.323 10 0 60880 3600.00000 0 -25166781.640 -3777813.133 -1262534.123 10 0 60880 4500.00000 0 -24829655.784 -3569309.435 -4468947.576 10 0 60880 5400.00000 0 -24088435.703 -3377369.755 -7588251.468 10 0 60880 6300.00000 0 -22960217.431 -3256912.864 -10559656.666 10 0 60880 7200.00000 0 -21474959.759 -3258681.866 -13325280.203 10 0 60880 8100.00000 0 -19674312.744 -3426858.558 -15831283.353 10 0 60880 9000.00000 0 -17609971.094 -3796964.326 -18028926.817 10 0 60880 9900.00000 0 -15341622.625 -4394137.599 -19875521.799 10 0 60880 10800.00000 0 -12934578.928 -5231861.372 -21335258.312 10 0 60880 11700.00000 0 -10457188.502 -6311194.873 -22379894.940 10 0 60880 12600.00000 0 -7978141.234 -7620541.689 -22989297.348 10 0 60880 13500.00000 0 -5563777.081 -9135963.813 -23151816.155 10 0 60880 14400.00000 0 -3275510.929 -10822028.008 -22864498.046 10 0 60880 15300.00000 0 -1167480.153 -12633148.478 -22133127.320 10 0 60880 16200.00000 0 715488.539 -14515369.244 -20972098.306 10 0 60880 17100.00000 0 2339510.177 -16408511.389 -19404122.211 10 0 60880 18000.00000 0 3682804.752 -18248595.381 -17459774.943 10 0 60880 18900.00000 0 4736346.564 -19970437.421 -15176895.300 10 0 60880 19800.00000 0 5503975.106 -21510311.811 -12599845.555 10 0 60880 20700.00000 0 6001965.229 -22808568.755 -9778648.928 10 0 60880 21600.00000 0 6258076.740 -23812098.956 -6768020.586 10 0 60880 22500.00000 0 6310125.027 -24476542.906 -3626310.719 10 0 60880 23400.00000 0 6204134.062 -24768153.184 -414379.791 10 0 60880 24300.00000 0 5992150.308 -24665232.701 2805572.702 10 0 60880 25200.00000 0 5729809.920 -24159089.489 5971203.789 10 0 60880 26100.00000 0 5473761.726 -23254468.260 9021224.422 10 0 60880 27000.00000 0 5279054.301 -21969440.767 11896576.204 10 0 60880 27900.00000 0 5196596.851 -20334759.260 14541565.462 10 0 60880 28800.00000 0 5270800.495 -18392699.327 16904933.475 10 0 60880 29700.00000 0 5537499.049 -16195439.441 18940842.935 10 0 60880 30600.00000 0 6022236.899 -13803043.454 20609762.285 10 0 60880 31500.00000 0 6738996.424 -11281128.616 21879231.362 10 0 60880 32400.00000 0 7689419.443 -8698314.596 22724493.899 10 0 60880 33300.00000 0 8862556.783 -6123558.041 23128984.713 10 0 60880 34200.00000 0 10235158.377 -3623482.108 23084661.869 10 0 60880 35100.00000 0 11772493.914 -1259810.870 22592176.737 10 0 60880 36000.00000 0 13429672.010 912985.589 21660877.684 10 0 60880 36900.00000 0 15153404.908 2849737.778 20308646.010 10 0 60880 37800.00000 0 16884146.811 4516230.001 18561565.862 10 0 60880 38700.00000 0 18558517.783 5890390.987 16453432.978 10 0 60880 39600.00000 0 20111912.561 6962971.869 14025110.331 10 0 60880 40500.00000 0 21481185.059 7737682.735 11323742.022 10 0 60880 41400.00000 0 22607295.438 8230781.783 8401839.829 10 0 60880 42300.00000 0 23437807.442 8470134.360 5316259.883 10 0 60880 43200.00000 0 23929129.481 8493781.905 2127089.566 10 0 60880 44100.00000 0 24048403.397 8348082.022 -1103533.007 10 0 60880 45000.00000 0 23774959.616 8085499.529 -4312642.712 10 0 60880 45900.00000 0 23101275.850 7762143.586 -7437689.050 10 0 60880 46800.00000 0 22033397.753 7435157.068 -10417769.847 10 0 60880 47700.00000 0 20590803.164 7160070.722 -13194831.305 10 0 60880 48600.00000 0 18805715.446 6988236.115 -15714809.616 10 0 60880 49500.00000 0 16721895.104 6964447.670 -17928690.773 10 0 60880 50400.00000 0 14392961.101 7124855.735 -19793467.265 10 0 60880 51300.00000 0 11880313.134 7495259.702 -21272972.855 10 0 60880 52200.00000 0 9250742.720 8089853.629 -22338579.498 10 0 60880 53100.00000 0 6573833.733 8910477.183 -22969743.560 10 0 60880 54000.00000 0 3919261.260 9946403.046 -23154391.741 10 0 60880 54900.00000 0 1354101.309 11174669.094 -22889140.480 10 0 60880 55800.00000 0 -1059737.119 12560940.687 -22179345.836 10 0 60880 56700.00000 0 -3267851.875 14060866.181 -21038984.151 10 0 60880 57600.00000 0 -5225363.676 15621868.307 -19490366.910 10 0 60880 58500.00000 0 -6898526.396 17185296.031 -17563696.199 10 0 60880 59400.00000 0 -8265866.879 18688846.627 -15296470.000 10 0 60880 60300.00000 0 -9318809.289 20069156.850 -12732749.257 10 0 60880 61200.00000 0 -10061760.350 21264455.045 -9922301.037 10 0 60880 62100.00000 0 -10511654.177 22217163.751 -6919634.360 10 0 60880 63000.00000 0 -10696977.786 22876344.511 -3782947.110 10 0 60880 63900.00000 0 -10656319.717 23199883.100 -573004.091 10 0 60880 64800.00000 0 -10436503.868 23156324.411 2648032.467 10 0 60880 65700.00000 0 -10090387.708 22726280.611 5817797.884 10 0 60880 66600.00000 0 -9674417.719 21903353.887 8874922.927 10 0 60880 67500.00000 0 -9246044.863 20694535.184 11760212.113 10 0 60880 68400.00000 0 -8861108.553 19120061.767 14417780.446 10 0 60880 69300.00000 0 -8571298.800 17212738.920 16796127.267 10 0 60880 70200.00000 0 -8421802.931 15016752.954 18849127.286 10 0 60880 71100.00000 0 -8449235.610 12586023.623 20536920.312 10 0 60880 72000.00000 0 -8679939.281 9982162.910 21826683.041 10 0 60880 72900.00000 0 -9128726.865 7272123.362 22693268.340 10 0 60880 73800.00000 0 -9798120.474 4525631.894 23119699.757 10 0 60880 74700.00000 0 -10678119.426 1812514.080 23097511.405 10 0 60880 75600.00000 0 -11746509.050 -799981.403 22626926.052 10 0 60880 76500.00000 0 -12969699.352 -3249748.111 21716866.981 10 0 60880 77400.00000 0 -14304060.420 -5482171.017 20384802.134 10 0 60880 78300.00000 0 -15697700.536 -7452162.108 18656422.099 10 0 60880 79200.00000 0 -17092614.016 -9125797.570 16565156.632 10 0 60880 80100.00000 0 -18427109.717 -10481487.931 14151537.655 10 0 60880 81000.00000 0 -19638418.687 -11510631.809 11462419.868 10 0 60880 81900.00000 0 -20665371.147 -12217725.518 8550073.266 10 0 60880 82800.00000 0 -21451029.287 -12619923.724 5471164.837 10 0 60880 83700.00000 0 -21945163.665 -12746069.764 2285649.445 10 0 60880 84600.00000 0 -22106467.059 -12635237.056 -944407.889 10 0 60880 85500.00000 0 -21904410.576 -12334844.194 -4156054.153 10 0 60881 0.00000 0 -21320661.941 -11898424.820 -7286689.423 10 0 60881 900.00000 0 -20350004.243 -11383148.147 -10275302.684 10 0 60881 1800.00000 0 -19000716.103 -10847197.578 -13063672.468 10 0 60881 2700.00000 0 -17294395.554 -10347119.511 -15597513.042 10 0 60881 3600.00000 0 -15265235.574 -9935256.814 -17827538.482 10 0 60881 4500.00000 0 -12958781.715 -9657376.687 -19710424.892 10 0 60881 5400.00000 0 -10430224.540 -9550594.131 -21209651.555 10 0 60881 6300.00000 0 -7742299.050 -9641679.097 -22296204.949 10 0 60881 7200.00000 0 -4962879.595 -9945818.651 -22949132.605 10 0 60881 8100.00000 0 -2162371.066 -10465885.787 -23155937.113 10 0 60881 9000.00000 0 588994.817 -11192244.846 -22912803.833 10 0 60881 9900.00000 0 3223845.880 -12103100.725 -22224659.183 10 0 60881 10800.00000 0 5680227.659 -13165376.190 -21105059.639 10 0 60881 11700.00000 0 7903928.295 -14336079.542 -19575914.680 10 0 60881 12600.00000 0 9850475.168 -15564104.495 -17667049.951 10 0 60881 13500.00000 0 11486722.359 -16792386.329 -15415619.747 10 0 60881 14400.00000 0 12791965.098 -17960323.722 -12865380.602 10 0 60881 15300.00000 0 13758537.066 -19006364.713 -10065840.182 10 0 60881 16200.00000 0 14391868.021 -19870648.807 -7071298.011 10 0 60881 17100.00000 0 14710001.298 -20497594.738 -3939796.291 10 0 60881 18000.00000 0 14742593.209 -20838325.888 -732000.841 10 0 60881 18900.00000 0 14529437.694 -20852832.268 2489966.592 10 0 60881 19800.00000 0 14118579.082 -20511778.800 5663722.618 10 0 60881 20700.00000 0 13564092.694 -19797884.343 8727820.510 10 0 60881 21600.00000 0 12923626.694 -18706813.629 11622930.066 10 0 60881 22500.00000 0 12255808.283 -17247544.353 14292976.930 10 0 60881 23400.00000 0 11617622.867 -15442193.340 16686220.070 10 0 60881 24300.00000 0 11061875.852 -13325307.883 18756247.363 10 0 60881 25200.00000 0 10634843.239 -10942650.329 20462870.729 10 0 60881 26100.00000 0 10374209.448 -8349524.769 21772904.085 10 0 60881 27000.00000 0 10307378.963 -5608713.522 22660809.433 10 0 60881 27900.00000 0 10450233.075 -2788107.161 23109198.723 10 0 60881 28800.00000 0 10806384.702 41875.384 23109181.499 10 0 60881 29700.00000 0 11366963.801 2810971.240 22660551.044 10 0 60881 30600.00000 0 12110943.914 5451752.466 21771804.460 10 0 60881 31500.00000 0 13005997.878 7902189.069 20459995.037 10 0 60881 32400.00000 0 14009848.559 10107990.127 18750418.340 10 0 60881 33300.00000 0 15072059.420 12024625.731 16676136.530 10 0 60881 34200.00000 0 16136190.882 13618945.153 14277348.710 10 0 60881 35100.00000 0 17142232.432 14870323.217 11600618.270 10 0 60881 36000.00000 0 18029208.138 15771286.383 8697971.356 10 0 60881 36900.00000 0 18737845.168 16327591.839 5625883.617 10 0 60881 37800.00000 0 19213191.599 16557756.112 2444175.072 10 0 60881 38700.00000 0 19407071.397 16492053.306 -785164.755 10 0 60881 39600.00000 0 19280271.014 16171025.833 -3999197.389 10 0 60881 40500.00000 0 18804363.276 15643571.702 -7135276.406 10 0 60881 41400.00000 0 17963089.753 14964690.670 -10132283.097 10 0 60881 42300.00000 0 16753241.704 14192986.385 -12931830.997 10 0 60881 43200.00000 0 15185001.420 13388031.975 -15479414.356 10 0 60881 44100.00000 0 13281728.902 12607712.269 -17725477.042 10 0 60881 45000.00000 0 11079202.733 11905656.431 -19626380.303 10 0 60881 45900.00000 0 8624347.182 11328870.495 -21145250.310 10 0 60881 46800.00000 0 5973499.323 10915670.212 -22252689.295 10 0 60881 47700.00000 0 3190289.161 10694001.320 -22927337.061 10 0 60881 48600.00000 0 343221.702 10680217.457 -23156273.032 10 0 60881 49500.00000 0 -2496938.048 10878366.164 -22935252.218 10 0 60881 50400.00000 0 -5259868.434 11280011.774 -22268771.846 10 0 60881 51300.00000 0 -7878370.982 11864601.264 -21169968.615 10 0 60881 52200.00000 0 -10290916.333 12600356.359 -19660349.680 10 0 60881 53100.00000 0 -12443951.864 13445653.271 -17769363.505 10 0 60881 54000.00000 0 -14293876.831 14350831.187 -15533819.548 10 0 60881 54900.00000 0 -15808604.910 15260352.983 -12997168.375 10 0 60881 55800.00000 0 -16968651.229 16115227.165 -10208656.409 10 0 60881 56700.00000 0 -17767700.764 16855589.318 -7222371.561 10 0 60881 57600.00000 0 -18212636.317 17423334.799 -4096198.013 10 0 60881 58500.00000 0 -18323026.839 17764692.566 -890700.125 10 0 60881 59400.00000 0 -18130098.908 17832632.335 2332043.432 10 0 60881 60300.00000 0 -17675235.610 17589004.445 5509633.249 10 0 60881 61200.00000 0 -17008066.485 17006322.887 8580547.886 10 0 60881 62100.00000 0 -16184228.897 16069116.577 11485325.241 10 0 60881 63000.00000 0 -15262894.713 14774791.957 14167704.434 10 0 60881 63900.00000 0 -14304165.769 13133970.055 16575706.861 10 0 60881 64800.00000 0 -13366446.870 11170282.808 18662636.266 10 0 60881 65700.00000 0 -12503905.952 8919635.640 20387979.239 10 0 60881 66600.00000 0 -11764127.419 6428965.186 21718189.254 10 0 60881 67500.00000 0 -11186056.717 3754541.843 22627339.518 10 0 60881 68400.00000 0 -10798322.259 959885.488 23097632.114 10 0 60881 69300.00000 0 -10618005.389 -1886621.142 23119753.367 10 0 60881 70200.00000 0 -10649910.627 -4714324.317 22693067.987 10 0 60881 71100.00000 0 -10886367.878 -7452990.514 21825647.325 10 0 60881 72000.00000 0 -11307576.176 -10035486.402 20534129.935 10 0 60881 72900.00000 0 -11882475.993 -12400337.021 18843415.733 10 0 60881 73800.00000 0 -12570114.842 -14494056.054 16786198.116 10 0 60881 74700.00000 0 -13321449.887 -16273150.878 14402341.671 10 0 60881 75600.00000 0 -14081512.412 -17705718.294 11738116.301 10 0 60881 76500.00000 0 -14791843.179 -18772563.510 8845301.703 10 0 60881 77400.00000 0 -15393095.531 -19467794.832 5780179.239 10 0 60881 78300.00000 0 -15827695.374 -19798868.632 2602430.868 10 0 60881 79200.00000 0 -16042444.162 -19786082.511 -626032.794 10 0 60881 80100.00000 0 -15990953.007 -19461538.313 -3842291.343 10 0 60881 81000.00000 0 -15635802.975 -18867619.491 -6983655.195 10 0 60881 81900.00000 0 -14950338.248 -18055048.292 -9988902.125 10 0 60881 82800.00000 0 -13920014.606 -17080606.421 -12799483.941 10 0 60881 83700.00000 0 -12543244.861 -16004617.207 -15360678.294 10 0 60881 84600.00000 0 -10831704.604 -14888297.375 -17622662.022 10 0 60881 85500.00000 0 -8810084.849 -13791091.788 -19541484.343 10 0 60882 0.00000 0 -6515302.060 -12768104.870 -21079920.584 10 0 60882 900.00000 0 -3995197.561 -11867737.101 -22208190.852 10 0 60882 1800.00000 0 -1306784.259 -11129627.593 -22904528.318 10 0 60882 2700.00000 0 1485889.776 -10582986.972 -23155589.868 10 0 60882 3600.00000 0 4314168.560 -10245391.065 -22956700.192 10 0 60882 4500.00000 0 7107406.330 -10122084.131 -22311926.794 10 0 60882 5400.00000 0 9795667.770 -10205819.321 -21233985.553 10 0 60882 6300.00000 0 12312398.837 -10477241.406 -19743979.809 10 0 60882 7200.00000 0 14596958.199 -10905794.034 -17870978.935 10 0 60882 8100.00000 0 16596905.540 -11451112.030 -15651445.225 10 0 60882 9000.00000 0 18269953.237 -12064839.129 -13128520.611 10 0 60882 9900.00000 0 19585502.129 -12692794.056 -10351187.209 10 0 60882 10800.00000 0 20525699.308 -13277393.468 -7373317.938 10 0 60882 11700.00000 0 21085975.751 -13760229.874 -4252635.364 10 0 60882 12600.00000 0 21275042.993 -14084696.169 -1049598.622 10 0 60882 13500.00000 0 21114350.531 -14198546.718 2173760.499 10 0 60882 14400.00000 0 20637027.870 -14056287.736 5355030.253 10 0 60882 15300.00000 0 19886356.231 -13621296.635 8432617.936 10 0 60882 16200.00000 0 18913834.351 -12867581.417 11346932.645 10 0 60882 17100.00000 0 17776919.441 -11781106.047 14041529.644 10 0 60882 18000.00000 0 16536537.638 -10360625.566 16464194.931 10 0 60882 18900.00000 0 15254467.746 -8617995.029 18567949.800 10 0 60882 19800.00000 0 13990707.162 -6577937.870 20311956.685 10 0 60882 20700.00000 0 12800929.579 -4277281.553 21662309.329 10 0 60882 21600.00000 0 11734140.318 -1763690.263 22592692.410 10 0 60882 22500.00000 0 10830626.989 906054.970 23084898.005 10 0 60882 23400.00000 0 10120291.175 3668159.490 23129188.703 10 0 60882 24300.00000 0 9621431.197 6454216.442 22724499.780 10 0 60882 25200.00000 0 9340027.513 9193808.639 21878475.665 10 0 60882 26100.00000 0 9269561.560 11817204.278 20607338.728 10 0 60882 27000.00000 0 9391376.687 14258035.538 18935591.542 10 0 60882 27900.00000 0 9675567.128 16455849.149 16895556.829 10 0 60882 28800.00000 0 10082358.632 18358422.612 14526762.568 10 0 60882 29700.00000 0 10563923.333 19923749.016 11875182.905 10 0 60882 30600.00000 0 11066552.663 21121606.721 8992348.671 10 0 60882 31500.00000 0 11533096.348 21934647.296 5934344.394 10 0 60882 32400.00000 0 11905563.656 22358955.259 2760711.342 10 0 60882 33300.00000 0 12127775.607 22404055.554 -466721.452 10 0 60882 34200.00000 0 12147954.176 22092368.291 -3685054.301 10 0 60882 35100.00000 0 11921136.929 21458134.040 -6831556.997 10 0 60882 36000.00000 0 11411312.861 20545855.849 -9844906.162 10 0 60882 36900.00000 0 10593187.101 19408324.952 -12666394.010 10 0 60882 37800.00000 0 9453498.268 18104315.037 -15241083.470 10 0 60882 38700.00000 0 7991831.506 16696044.005 -17518885.970 10 0 60882 39600.00000 0 6220892.114 15246511.842 -19455540.091 10 0 60882 40500.00000 0 4166227.788 13816828.054 -21013471.754 10 0 60882 41400.00000 0 1865411.052 12463642.015 -22162519.416 10 0 60882 42300.00000 0 -633283.676 11236784.588 -22880510.801 10 0 60882 43200.00000 0 -3272652.775 10177219.773 -23153680.958 10 0 60882 44100.00000 0 -5988711.604 9315391.473 -22976924.748 10 0 60882 45000.00000 0 -8713128.486 8670033.321 -22353880.159 10 0 60882 45900.00000 0 -11375843.305 8247489.713 -21296842.129 10 0 60882 46800.00000 0 -13907762.243 8041574.525 -19826509.677 10 0 60882 47700.00000 0 -16243417.363 8033971.441 -17971572.185 10 0 60882 48600.00000 0 -18323481.537 8195157.215 -15768143.521 10 0 60882 49500.00000 0 -20097035.583 8485807.486 -13259055.373 10 0 60882 50400.00000 0 -21523494.799 8858624.869 -10493023.704 10 0 60882 51300.00000 0 -22574116.305 9260511.590 -7523704.403 10 0 60882 52200.00000 0 -23233026.100 9634994.840 -4408656.217 10 0 60882 53100.00000 0 -23497724.431 9924802.587 -1208230.731 10 0 60882 54000.00000 0 -23379049.832 10074481.557 2015589.558 10 0 60882 54900.00000 0 -22900604.461 10032947.424 5200383.096 10 0 60882 55800.00000 0 -22097665.524 9755860.167 8284488.534 10 0 60882 56700.00000 0 -21015628.802 9207724.840 11208188.844 10 0 60882 57600.00000 0 -19708049.383 8363629.326 13914858.146 10 0 60882 58500.00000 0 -18234361.367 7210545.732 16352049.739 10 0 60882 59400.00000 0 -16657371.392 5748140.034 18472505.069 10 0 60882 60300.00000 0 -15040630.022 3989054.808 20235064.857 10 0 60882 61200.00000 0 -13445790.086 1958651.548 21605465.311 10 0 60882 62100.00000 0 -11930061.519 -305778.747 22557004.479 10 0 60882 63000.00000 0 -10543868.368 -2756306.135 23071065.983 10 0 60882 63900.00000 0 -9328805.375 -5336102.151 23137489.842 10 0 60882 64800.00000 0 -8315979.382 -7981560.113 22754782.675 10 0 60882 65700.00000 0 -7524805.012 -10624709.376 21930162.342 10 0 60882 66600.00000 0 -6962305.498 -13195824.942 20679434.956 10 0 60882 67500.00000 0 -6622948.603 -15626125.279 19026705.245 10 0 60882 68400.00000 0 -6489025.327 -17850446.794 17003924.324 10 0 60882 69300.00000 0 -6531556.269 -19809783.694 14650282.199 10 0 60882 70200.00000 0 -6711688.146 -21453586.885 12011455.497 10 0 60882 71100.00000 0 -6982521.888 -22741725.056 9138724.069 10 0 60882 72000.00000 0 -7291295.066 -23646024.797 6087973.184 10 0 60882 72900.00000 0 -7581825.751 -24151324.065 2918600.736 10 0 60882 73800.00000 0 -7797113.320 -24255993.824 -307648.706 10 0 60882 74700.00000 0 -7881984.488 -23971905.275 -3527899.226 10 0 60882 75600.00000 0 -7785670.615 -23323843.909 -6679383.171 10 0 60882 76500.00000 0 -7464205.050 -22348395.423 -9700679.281 10 0 60882 77400.00000 0 -6882536.990 -21092351.300 -12532923.488 10 0 60882 78300.00000 0 -6016270.565 -19610702.544 -15120967.275 10 0 60882 79200.00000 0 -4852954.138 -17964307.560 -17414459.822 10 0 60882 80100.00000 0 -3392864.295 -16217333.956 -19368832.007 10 0 60882 81000.00000 0 -1649250.839 -14434583.283 -20946162.826 10 0 60882 81900.00000 0 351967.848 -12678812.135 -22115911.559 10 0 60882 82800.00000 0 2573046.232 -11008162.620 -22855502.040 10 0 60882 83700.00000 0 4965754.416 -9473809.903 -23150748.682 10 0 60882 84600.00000 0 7473165.899 -8117924.623 -22996117.199 10 0 60882 85500.00000 0 10031815.442 -6972034.304 -22394816.252 10 0 60883 0.00000 0 12574136.860 -6055850.603 -21358719.673 10 0 60883 900.00000 0 15031080.777 -5376608.956 -19908121.244 10 0 60883 1800.00000 0 17334800.474 -4928947.214 -18071329.259 10 0 60883 2700.00000 0 19421299.402 -4695324.456 -15884107.536 10 0 60883 3600.00000 0 21232927.842 -4646961.668 -13388975.449 10 0 60883 4500.00000 0 22720627.297 -4745262.507 -10634380.239 10 0 60883 5400.00000 0 23845830.490 -4943653.262 -7673757.746 10 0 60883 6300.00000 0 24581938.973 -5189763.688 -4564499.496 10 0 60883 7200.00000 0 24915318.067 -5427856.416 -1366845.817 10 0 60883 8100.00000 0 24845768.946 -5601402.510 1857273.971 10 0 60883 9000.00000 0 24386459.079 -5655694.787 5045432.405 10 0 60883 9900.00000 0 23563314.668 -5540389.068 8135903.256 10 0 60883 10800.00000 0 22413900.859 -5211866.593 11068846.890 10 0 60883 11700.00000 0 20985836.533 -4635318.237 13787459.440 10 0 60883 12600.00000 0 19334809.659 -3786462.759 16239064.227 10 0 60883 13500.00000 0 17522275.515 -2652826.358 18376125.109 10 0 60883 14400.00000 0 15612933.084 -1234528.908 20157162.870 10 0 60883 15300.00000 0 13672084.003 455457.504 21547557.501 10 0 60883 16200.00000 0 11762983.251 2391590.377 22520221.271 10 0 60883 17100.00000 0 9944291.148 4536569.428 23056129.765 10 0 60883 18000.00000 0 8267732.183 6842648.546 23144700.413 10 0 60883 18900.00000 0 6776057.810 9253394.943 22784010.729 10 0 60883 19800.00000 0 5501398.010 11705824.605 21980851.146 10 0 60883 20700.00000 0 4464070.579 14132827.236 20750610.270 10 0 60883 21600.00000 0 3671898.252 16465781.320 19116993.364 10 0 60883 22500.00000 0 3120062.794 18637251.451 17111577.993 10 0 60883 23400.00000 0 2791502.753 20583655.798 14773213.968 10 0 60883 24300.00000 0 2657838.669 22247792.205 12147277.941 10 0 60883 25200.00000 0 2680787.043 23581116.522 9284796.118 10 0 60883 26100.00000 0 2814003.371 24545676.686 6241451.695 10 0 60883 27000.00000 0 3005275.882 25115620.094 3076496.266 10 0 60883 27900.00000 0 3198976.171 25278209.726 -148413.040 10 0 60883 28800.00000 0 3338661.585 25034305.181 -3370427.025 10 0 60883 29700.00000 0 3369717.264 24398287.768 -6526743.431 10 0 60883 30600.00000 0 3241923.938 23397432.617 -9555845.767 10 0 60883 31500.00000 0 2911840.564 22070754.636 -12398716.081 10 0 60883 32400.00000 0 2344899.060 20467377.776 -14999996.516 10 0 60883 33300.00000 0 1517120.790 18644497.431 -17309075.802 10 0 60883 34200.00000 0 416381.062 16665023.086 -19281078.630 10 0 60883 35100.00000 0 -956832.621 14595001.632 -20877738.334 10 0 60883 36000.00000 0 -2589200.882 12500930.573 -22068136.046 10 0 60883 36900.00000 0 -4454900.727 10447074.551 -22829292.522 10 0 60883 37800.00000 0 -6516467.755 8492897.657 -23146602.136 10 0 60883 38700.00000 0 -8726155.974 6690718.518 -23014101.792 10 0 60883 39600.00000 0 -11027738.009 5083685.139 -22434570.873 10 0 60883 40500.00000 0 -13358670.368 3704152.464 -21419461.573 10 0 60883 41400.00000 0 -15652533.438 2572528.401 -19988662.137 10 0 60883 42300.00000 0 -17841644.744 1696634.225 -18170098.572 10 0 60883 43200.00000 0 -19859737.086 1071603.618 -15999183.242 10 0 60883 44100.00000 0 -21644590.736 680322.256 -13518121.473 10 0 60883 45000.00000 0 -23140510.957 494387.329 -10775089.836 10 0 60883 45900.00000 0 -24300548.722 475544.973 -7823301.976 10 0 60883 46800.00000 0 -25088373.059 577543.874 -4719979.875 10 0 60883 47700.00000 0 -25479718.150 748326.177 -1525250.199 10 0 60883 48600.00000 0 -25463345.587 932462.952 1699013.410 10 0 60883 49500.00000 0 -25041482.543 1073731.534 4890380.192 10 0 60883 50400.00000 0 -24229718.271 1117726.305 7987061.725 10 0 60883 51300.00000 0 -23056363.381 1014393.135 10929098.513 10 0 60883 52200.00000 0 -21561298.636 720380.978 13659511.444 10 0 60883 53100.00000 0 -19794361.019 201111.718 16125396.546 10 0 60883 54000.00000 0 -17813333.757 -567518.994 18278942.623 10 0 60883 54900.00000 0 -15681623.183 -1597881.972 20078352.839 10 0 60883 55800.00000 0 -13465718.250 -2889849.704 21488652.968 10 0 60883 56700.00000 0 -11232537.322 -4430560.075 22482371.156 10 0 60883 57600.00000 0 -9046771.590 -6194720.483 23040076.200 10 0 60883 58500.00000 0 -6968334.728 -8145441.866 23150763.796 10 0 60883 59400.00000 0 -5050024.176 -10235570.291 22812082.806 10 0 60883 60300.00000 0 -3335490.938 -12409462.988 22030396.313 10 0 60883 61200.00000 0 -1857602.343 -14605137.021 20820675.124 10 0 60883 62100.00000 0 -637266.174 -16756702.814 19206224.399 10 0 60883 63000.00000 0 317234.414 -18796982.377 17218247.163 10 0 60883 63900.00000 0 1010366.894 -20660203.578 14895251.698 10 0 60883 64800.00000 0 1458930.607 -22284657.892 12282313.015 10 0 60883 65700.00000 0 1691110.601 -23615209.846 9430201.701 10 0 60883 66600.00000 0 1745043.939 -24605551.892 6394396.625 10 0 60883 67500.00000 0 1666959.377 -25220108.704 3234000.602 10 0 60883 68400.00000 0 1508969.897 -25435509.349 10580.653 10 0 60883 69300.00000 0 1326612.795 -25241563.993 -3213043.548 10 0 60883 70200.00000 0 1176243.185 -24641702.885 -6374038.054 10 0 60883 71100.00000 0 1112393.286 -23652858.457 -9410794.132 10 0 60883 72000.00000 0 1185211.455 -22304795.332 -12264142.960 10 0 60883 72900.00000 0 1438091.402 -20638916.823 -14878520.334 10 0 60883 73800.00000 0 1905593.729 -18706598.942 -17203057.433 10 0 60883 74700.00000 0 2611749.041 -16567123.055 -19192575.476 10 0 60883 75600.00000 0 3568815.296 -14285295.227 -20808464.582 10 0 60883 76500.00000 0 4776542.307 -11928853.180 -22019429.832 10 0 60883 77400.00000 0 6221974.512 -9565770.298 -22802090.600 10 0 60883 78300.00000 0 7879800.098 -7261569.803 -23141422.476 10 0 60883 79200.00000 0 9713231.512 -5076761.103 -23031034.371 10 0 60883 80100.00000 0 11675380.002 -3064504.546 -22473276.779 10 0 60883 81000.00000 0 13711066.321 -1268600.591 -21479180.352 10 0 60883 81900.00000 0 15758991.690 278114.602 -20068227.203 10 0 60883 82800.00000 0 17754178.337 1554902.480 -18267960.315 10 0 60883 83700.00000 0 19630577.974 2553739.504 -16113439.378 10 0 60883 84600.00000 0 21323739.797 3279395.344 -13646554.025 10 0 60883 85500.00000 0 22773427.417 3748971.048 -10915208.037 99